STARLINK-1569, 46039

Orbit data source: Space-Track

STARLINK-1569, 46039 is a payload satellite owned by SpaceX/Seattle (US) in LEO that was launched on Fri, 07 Aug 2020 UTC via an FALCON 9 launch vehicle from the Air Force Eastern Test Range (AFETR). Payload-class satellites include a variety of spacecraft equipped with specific instruments for various scientific and technological missions. These include communications satellites like Starlink; space stations such as the ISS; scientific satellites like the Hubble; Earth observation satellites from companies like Planet Labs, Umbra, and HawkEye 360; GPS; miniature CubeSats for education and research; and military/defense satellites.

Loading next visibility...
Identifier
46039, 2020-055N
Orbit
LEO
Country
Flag of USUS
Related business
Manufacturer
SpaceX/Seattle
Mission
Operational Commercial Communications
Bus & Motor
STARLINK, Unknown motor
Mass
260 kg wet, ~248 kg dry
Launch date (UTC)
2020-08-07 (5 years ago)
Launch vehicle
FALCON 9
Launch site
Air Force Eastern Test Range (AFETR)
Object type
Payload
Rocket body
Debris
Shape & HBR
Box + 1 Pan, 10.1 m
Radar Cross Section
13.562 m², Large (>1 m²)

Expand to show TLE details & history
Last TLE update: 14 hours ago

TLE from 14 hours ago
0 STARLINK-1569
1 46039U 20055N   25341.26343691  .00000676  00000-0  64248-4 0  9990
2 46039  53.0549 181.5368 0001434  91.2471 268.8683 15.06399061294958
Epoch: 2025-12-07T06:19Z
TLE epoch observation values (Epoch: 2025-12-07T06:19:20.949Z)
Latitude
0.00006°
Longitude
10.42023°
Altitude
548.113 km
Speed
7.589 km/s
True Right ascension
12h 06m 08s
True Declination
0° 00' 00"
Sunlit
Object was in daylight at epoch
Visualization orbit readout
Latitude
Unknown
Longitude
Unknown
Altitude
Unknown
Speed
Unknown
Apparent Right ascension
Unknown
Apparent Declination
Unknown
Sunlit
N/A
Visualization observer readout
Local Sidereal Time
18:45:53
Azimuth
Unknown
Elevation
Unknown
Doppler factor
Unknown
Orbital elements
Apogee altitude
548.478 km
Perigee altitude
546.492 km
Semi-major axis
6,925.622 km
Eccentricity
0.00014
Inclination
53.0549°
RAAN
181.5368°
Arg. of periapsis
91.2471°
True anomaly
268.85187°
Mean anomaly
268.8683°
Eccentric anomaly
268.86009°
Mean motion
3.76578 °/min
Orbital period
95.6 mins
BSTAR
0.000064248
Loading maneuver chart data...
Computing Atmospheric mass density...

Documentation

Showing up to 5 results
|